カタログに戻る

SL-12 R/B(2)

運用中GEO
NORAD 26480·ROCKET BODY·🇷🇺 Russia

打ち上げ Aug 28, 2000 から Baikonur Cosmodrome

Loading…

TLE

最新Source: Space-Track

元期: Sep 14, 2026, 19:23 UTC

1 26480U 00049D   26257.80786108 -.00000060  00000-0  00000-0 0  9990
2 26480  14.6713   9.5257 0013758  27.4008 343.5881  0.98192196 47274

AllMySatでSL-12 R/B(2)をリアルタイム追跡

Download on the App Store